Regional Weather Roundup
Issued by NWS Columbia, SC

Home | Current Version | Previous Version | Text Only | Print | Product List | Glossary On
Versions: 1 2 3 4 5 6 7 8 9 10 11 12 13 14 15 16 17 18 19 20 21 22 23 24 25 26 27 28 29 30 31 32 33 34 35 36 37 38 39 40 41 42 43 44 45 46 47 48 49 50
548
ASUS42 KCAE 262110
RWRCAE
REGIONAL WEATHER ROUNDUP
NATIONAL WEATHER SERVICE COLUMBIA SC
500 PM EDT TUE JUL 26 2016

NOTE: "FAIR" INDICATES FEW OR NO CLOUDS BELOW 12,000 FEET WITH NO
SIGNIFICANT WEATHER AND/OR OBSTRUCTIONS TO VISIBILITY.

NOT ALL STATIONS ARE QUALITY CONTROLLED BY THE NATIONAL
WEATHER SERVICE. USE DATA WITH CAUTION...ESPECIALLY
DEWPOINT OBSERVATIONS.

SCZ001>056-GAZ040-063>065-077-262200-
...UPSTATE SOUTH CAROLINA...

CITY           SKY/WX    TMP DP  RH WIND       PRES   REMARKS
ANDERSON       MOSUNNY   98  64  32 W8        29.98F HX 100
LIBERTY        CLEAR     94  72  47 SW3       29.99F HX 102
SPARTANBURG    MOSUNNY   95  68  41 W6        29.98S HX  99
CLEMSON        MOSUNNY   99  65  32 VRB7      29.99F HX 102
GREENVILLE     CLOUDY    91  71  51 N13       30.01S HX  97
GREENWOOD      MOSUNNY   96  66  37 S8        29.99F HX  99
GREER          HVY RAIN  81  72  74 SW17G25   29.99S
ROCK HILL      SUNNY     97  70  41 SW12      29.97F HX 103
CHESTER        CLEAR     95  68  41 SW3       29.98S HX  99
LAURENS        CLEAR     97  68  38 S8        29.97F HX 101


...CENTRAL SOUTH CAROLINA...

CITY           SKY/WX    TMP DP  RH WIND       PRES   REMARKS
COLUMBIA APT   MOSUNNY  101  68  34 S13G22    29.95F HX 106
COLUMBIA OWENS CLOUDY    95  70  44 S7        29.96F HX 101
MCENTIRE ANGB  MOSUNNY   98  67  37 SW12      29.97F HX 102
ORANGEBURG     SUNNY     97  68  38 SW9       29.98F HX 102
SUMTER SHAW    MOSUNNY   96  71  42 SW9       29.94F HX 103
NEWBERRY       CLEAR     97  70  41 SW7       30.00F HX 103
AIKEN          FAIR      95  66  38 S10       30.02F HX  98
MANNING        FAIR      95  70  43 S7        29.97F HX 101
LANCASTER      PTCLDY    95  68  41 SE7       29.96F HX  99
WINNSBORO      PTCLDY    99  64  32 SW8       29.97F HX 101


...EASTERN AND COASTAL SOUTH CAROLINA...

CITY           SKY/WX    TMP DP  RH WIND       PRES   REMARKS
MYRTLE BEACH   MOSUNNY   90  72  55 S17       30.00F HX  96
N MYRTLE BCH   SUNNY     88  77  69 SW15      29.98F HX 100
CONWAY         FAIR      91  77  62 S8G16     29.97F HX 105
MARION           N/A     95  70  43 SW9       29.96F HX 101
HARTSVILLE     FAIR      95  70  43 SW8G17    29.96S HX 101
FLORENCE       MOSUNNY   96  68  39 SW7       29.96F HX 101
CHARLESTON APT MOSUNNY   94  74  52 S15G22    29.99F HX 104
MOUNT PLEASANT FAIR      91  77  62 SW12      30.00S HX 105
WALTERBORO     CLEAR     97  64  34 S9        30.00F HX  99
BEAUFORT       MOSUNNY   93  76  57 S8        30.01S HX 105


...EASTERN GEORGIA...

CITY           SKY/WX    TMP DP  RH WIND       PRES   REMARKS
AUGUSTA BUSH F MOSUNNY  100  63  29 SW10G16   29.97F HX 102
AUGUSTA DANIEL SUNNY     98  65  33 MISG      29.99F HX 101
WASHINGTON     FAIR      99  68  36 S8        30.00F HX 104
CLAXTON        MOCLDY    92  73  53 S6        30.01S HX 100
STATESBORO     CLOUDY    92  74  53 S8        30.01F HX 102
SAVANNAH       PTSUNNY   93  73  52 S17       30.01F HX 102


...SOUTHERN NORTH CAROLINA...

CITY           SKY/WX    TMP DP  RH WIND       PRES   REMARKS
CHARLOTTE      CLOUDY    95  70  44 SW9       29.97S HX 101
MONROE         MOSUNNY   98  68  37 SW12G18   29.95F HX 103
ROCKINGHAM     PTCLDY    94  77  56 S10G17    29.95F HX 109
RUTHERFORDTON  TSTM      75  71  89 W14G53    30.06R VSB 1
ASHEVILLE      CLOUDY    79  67  66 VRB5      30.10S

$$




USA.gov is the U.S. government's official web portal to all federal, state and local government web resources and services.